SL-12 R/B(AUX MOTOR), 33472

Orbit data source: Space-Track

SL-12 R/B(AUX MOTOR), 33472 is space debris in HEO originally from a launch on Thu, 25 Dec 2008 UTC launched from the Tyuratam Missile And Space Complex (TTMTR). Debris objects in space refer to the collection of defunct objects orbiting the Earth. Examples of debris include non-operational satellites, rocket bodies, and fragments generated from explosions, collisions, or faulty payload assembly.

Loading next visibility...
Identifier
33472, 2008-067G
Orbit
HEO
Country
Flag of CISCIS
Related business
Manufacturer
RKKE
Mission
Spacecraft
Bus & Motor
SOZ, Unknown motor
Mass
56 kg wet, 56 kg dry
Launch date (UTC)
2008-12-25 (17 years ago)
Launch vehicle
Unknown
Launch site
Tyuratam Missile And Space Complex (TTMTR)
Object type
Payload
Rocket body
Debris
Shape & HBR
Cyl, 0.6 m
Radar Cross Section
0.660 m², Medium (>0.1 m² and < 1m²)

Expand to show TLE details & history
Last TLE update: 3 days ago

TLE from 3 days ago
0 SL-12 R/B(AUX MOTOR)
1 33472U 08067G   25302.58979268  .00000127  00000-0  19549-3 0  9997
2 33472  64.9490 148.2462 5551283 289.9294  20.2599  4.40003311261712
Epoch: 2025-10-29T14:09Z
TLE epoch observation values (Epoch: 2025-10-29T14:09:18.087Z)
Latitude
0.00003°
Longitude
-102.23688°
Altitude
2,784.208 km
Speed
7.854 km/s
True Right ascension
09h 52m 59s
True Declination
0° 00' 00"
Sunlit
Object was in daylight at epoch
Visualization orbit readout
Latitude
Unknown
Longitude
Unknown
Altitude
Unknown
Speed
Unknown
Apparent Right ascension
Unknown
Apparent Declination
Unknown
Sunlit
N/A
Visualization observer readout
Local Sidereal Time
12:00:29
Azimuth
Unknown
Elevation
Unknown
Doppler factor
Unknown
Orbital elements
Apogee altitude
18,084.316 km
Perigee altitude
619.776 km
Semi-major axis
15,730.183 km
Eccentricity
0.55513
Inclination
64.949°
RAAN
148.2462°
Arg. of periapsis
289.9294°
True anomaly
70.22211°
Mean anomaly
20.2599°
Eccentric anomaly
41.21805°
Mean motion
1.10013 °/min
Orbital period
327.24 mins
BSTAR
0.00019549
Loading maneuver chart data...
Computing Atmospheric mass density...
Loading historical data...
Loading historical data...
Loading historical data...
Loading historical data...
Loading historical data...
Loading historical data...
Loading historical data...

Documentation

Showing up to 5 results
|